Time,TemperatureF,DewpointF,PressureIn,WindDirection,WindDirectionDegrees,WindSpeedMPH,WindSpeedGustMPH,Humidity,HourlyPrecipIn,Conditions,Clouds,dailyrainin,SoftwareType,DateUTC
2013-04-14 00:00:00,48.0,-99.9,-100.00,North,-999,-999.0,-999.0,-999,-99.99,,,0.00,,2013-04-14 06:00:00,
2013-04-14 01:00:00,47.0,-99.9,-100.00,North,-999,-999.0,-999.0,-999,-99.99,,,0.01,,2013-04-14 07:00:00,
2013-04-14 01:53:00,47.0,-99.9,-100.00,North,-999,-999.0,-999.0,-999,-99.99,,,0.01,,2013-04-14 07:53:00,
2013-04-14 03:00:00,44.0,19.0,-100.00,West,265,5.0,12.0,36,-99.99,,,0.01,,2013-04-14 09:00:00,
2013-04-14 04:00:00,43.0,21.0,-100.00,West,262,3.0,8.0,41,-99.99,,,0.01,,2013-04-14 10:00:00,
2013-04-14 05:00:00,44.0,-99.9,-100.00,North,-999,-999.0,-999.0,-999,-99.99,,,0.01,,2013-04-14 11:00:00,
2013-04-14 06:00:00,42.0,21.0,-100.00,WSW,255,2.0,6.0,43,-99.99,,,0.01,,2013-04-14 12:00:00,
2013-04-14 07:00:00,43.0,23.0,-100.00,SW,235,2.0,7.0,44,-99.99,,,0.01,,2013-04-14 13:00:00,
2013-04-14 08:00:00,43.0,22.0,-100.00,West,268,2.0,6.0,43,-99.99,,,0.01,,2013-04-14 14:00:00,
2013-04-14 09:00:00,45.0,24.0,-100.00,West,267,3.0,8.0,43,-99.99,,,0.01,,2013-04-14 15:00:00,
2013-04-14 10:00:00,48.0,25.0,-100.00,WSW,246,3.0,12.0,40,-99.99,,,0.00,,2013-04-14 16:00:00,
2013-04-14 11:00:00,49.0,25.0,-100.00,WSW,257,3.0,22.0,38,-99.99,,,0.00,,2013-04-14 17:00:00,
2013-04-14 12:00:00,53.0,27.0,-100.00,West,261,4.0,11.0,37,-99.99,,,0.00,,2013-04-14 18:00:00,
2013-04-14 13:00:00,52.0,24.0,-100.00,West,266,4.0,11.0,33,-99.99,,,0.00,,2013-04-14 19:00:00,
2013-04-14 14:00:00,54.0,24.0,-100.00,West,276,3.0,8.0,31,-99.99,,,0.00,,2013-04-14 20:00:00,
2013-04-14 15:00:00,55.0,24.0,-100.00,WNW,282,3.0,7.0,30,-99.99,,,0.00,,2013-04-14 21:00:00,
2013-04-14 16:00:00,54.0,22.0,-100.00,WNW,294,3.0,6.0,29,-99.99,,,0.00,,2013-04-14 22:00:00,
2013-04-14 17:00:00,54.0,22.0,-100.00,NW,304,3.0,5.0,29,-99.99,,,0.00,,2013-04-14 23:00:00,
2013-04-14 18:00:00,53.0,22.0,-100.00,WNW,289,3.0,10.0,29,-99.99,,,0.00,,2013-04-15 00:00:00,
2013-04-14 19:00:00,51.0,21.0,-100.00,WNW,293,2.0,5.0,30,-99.99,,,0.00,,2013-04-15 01:00:00,
2013-04-14 20:00:00,48.0,21.0,-100.00,West,264,1.0,5.0,33,-99.99,,,0.00,,2013-04-15 02:00:00,
2013-04-14 21:00:00,48.0,24.0,-100.00,SW,225,1.0,4.0,39,-99.99,,,0.00,,2013-04-15 03:00:00,
2013-04-14 22:00:00,49.0,23.0,-100.00,West,271,2.0,6.0,36,-99.99,,,0.00,,2013-04-15 04:00:00,
2013-04-14 23:00:00,49.0,22.0,-100.00,West,265,2.0,9.0,35,-99.99,,,0.00,,2013-04-15 05:00:00,